Погода Винницы

Погода Винницы : погода сейчас, прогноз погоды и архив. Всё, что Вы хотите узнать о погоде Винницы!

Поиск расширенной информации на нашем сайте:

Другие новости

Новости СМИ2

Главная страница сайта

Новости сайта

02.10.2013

Напоминаем, что на нашем новом сайте вы можете получить высокодетализированные прогнозы погоды по пунктам России, СНГ и мира (включающие важные для авиации метеовеличины, такие как направление и скорость ветра, видимость, явления погоды, количество и форма облачности, нижняя и верхняя граница облачности), а также ознакомиться с разнообразными материалами по авиационной метеорологии и подборкой полезных ссылок на эту тему.

Сайт Метеоцентр.Азия посвящён разработке технологий оптимизации авиаметеорологического обслуживания, включая проектирование и перспективное создание нескольких автоматизированных авиаметеорологических систем:
- система выпуска высокодетальных прогностических карт явлений погоды для нижнего воздушного пространства по России и ближнему зарубежью;
- система верификации прогнозов TAF (выпускаемых синоптиками официальных АМСГ РФ и ближнего зарубежья) и AUTOTAF (выпускаемых сайтом Метеоцентр.Азия) - выявление ошибок, онлайн-сопоставление с фактической погодой METAR, автоматическое внесение коррективов в прогнозы при резком отклонении фактической погоды от прогноза, подсчёт оправдываемости прогнозов по элементам и в целом;
- система обработки, анализа и отображения авиаметеорологической информации для применения провайдерами метеорологической информации.


Погода Винницы - сегодня

Время (UTC), дата Ветер
(°,м/с) 
Видим.   Явления Облачность Т
(°С)
Тd
(°С)
f(%) Тe
(°С)
Pmin
(гПа)
dP
(гПа)
Po
(мм)
O2
(г/м3)
Тmin Tmax R s Состояние
почвы
03 26.04.17 180 (Ю) 6-11{14}  20000 м    9/5 600 м кучево-дожд., средняя 
[Cb cap|Ac und]
+4.9 -1 66 +2  1000.1  -4.4  740  293  +4.7         
06 26.04.17 200 (Ю) 4{13}  27000 м  слаб. ливневой дождь  10/10 630 м кучево-дожд. 
[Cb cap]
+3.2 +2.7 97 +1  998.1  -2  738  294  +2.3    мокрый или
старый снег
10-40% 
09 26.04.17 230 (ЮЗ) 4{11}  20000 м  в посл. час ливневой дождь  10/10 660 м кучево-дожд. 
[Cb cap]
+4.3 +3 91 +3  1000.1  740  293           
12 26.04.17 250 (З) 2{14}  20000 м  {ливн. осадки}  4/0 кучево-дожд. 
[Cb cap]
+6.7 +2 72 +7  1001.2  1.2  741  291           
15 26.04.17 210 (ЮЗ) 7-12{12}  20000 м    8/5 600 м кучево-дожд., средняя 
[Cb cap|Ac und]
+5.9 -1.3 60 +3  1001.3  -0.1  741  292         
18 26.04.17 220 (ЮЗ) 3{20}  50000 м  в посл. час ливневой дождь  9/5 600 м кучево-дожд., средняя, верхняя 
[Cb cap|Ac und|Ci fib]
+1.3 +0.4 94 1002.6  742  297    +8.4     
21 26.04.17 230 (ЮЗ) 6-10{12}  50000 м    9/9 700 м кучево-дожд. 
[Cb cap]
+2.2 +0.8 90 -1  1003.1  0.5  742  296           
00 27.04.17 220 (ЮЗ) 7-13{13}  50000 м    9/9 800 м кучево-дожд. 
[Cb cap]
+2.6 -0.2 82 -1  1004.6  1.5  743  297           
03 27.04.17 230 (ЮЗ) 7-10{13}  20000 м    3/3 600 м кучево-дожд. 
[Cb cap]
+1.8 -1.5 79 -2  1005.7  744  298  +1.1    0.4     
06 27.04.17 230 (ЮЗ) 7-10{13}  20000 м    4/4 600 м кучево-дожд. 
[Cb cap]
+4.1 -1.7 66 +1  1007.2  1.6  745  296  +1.1      мокрый или
старый снег
10-40% 
09 27.04.17 240 (ЮЗ) 8-14{15}  20000 м    8/8 720 м кучево-дожд. 
[Cb cap]
+5.9 -4.4 48 +3  1008.4  1.3  746  295           
12 27.04.17 250 (З) 5-11{15}  20000 м  в посл. час ливневой дождь  8/8 750 м кучево-дожд. 
[Cb cap]
+7.4 -4.7 42 +6  1009.5  1.1  747  294           
15 27.04.17 240 (ЮЗ) 4{13}  20000 м    6/4 600 м кучево-дожд., средняя 
[Cb cap|Ac trans]
+7 -3.3 48 +6  1010.8  1.3  748  294      0.0     
18 27.04.17 230 (ЮЗ) 50000 м    4/3 600 м кучево-дожд., средняя 
[Cb cap|Ac trans]
+3.2 -1.3 72 +3  1012.9  1.9  749  299    +8  0.0     
21 27.04.17 260 (З) 50000 м    4/0 средняя 
[Ac trans]
-0.6 -1.5 94 -1  1014.3  1.1  750  303           
00 28.04.17 280 (З) 50000 м    4/0 средняя 
[Ac trans]
-1.7 -2 98 -1  1015.7  1.3  751  305           
03 28.04.17 250 (З) 20000 м    8/0 средняя 
[Ac und]
-1.2 -1.6 97 -2  1017.7  753  305  -2.1         
06 28.04.17 230 (ЮЗ) 20000 м    9/9 500 м кучево-дожд. 
[Cb cap]
+2.7 +0.3 84 +1  1019.7  2.1  754  301  -2.1      мокрый или
старый снег
10-40% 
09 28.04.17 250 (З) 20000 м    8/8 660 м кучево-дожд. 
[Cb cap]
+7.3 -0.1 59 +7  1021.7  2.2  756  297           
12 28.04.17 290 (З) 3{11}  20000 м  {ливн. осадки}  8/8 700 м кучево-дожд. 
[Cb cap]
+9 -3.2 42 +8  1022.9  1.2  757  296           
15 28.04.17 040 (СВ) 20000 м    8/5 600 м кучево-дожд., верхняя 
[Cb cap|Ci fib]
+8.8 -4.7 38 +10  1023.8  0.9  758  296      0.1     
18 28.04.17 050 (СВ) 50000 м    9/0 средняя, верхняя 
[Ac trans|Ci fib]
+3 -2.4 68 +2  1026.5  2.4  759  303    +9.8  0.1     
21 28.04.17 040 (СВ) 50000 м    9/0 средняя, верхняя 
[Ac trans|Ci fib]
+0.3 -3.9 73 1027.7  760  306           
00 29.04.17 050 (СВ) 50000 м    9/0 средняя 
[Ac und]
-0.6 -2.9 84 -1  1028.1  0.4  760  307           
03 29.04.17 050 (СВ) 20000 м    10/0 средняя 
[Ac As]
-0.5 -2.9 84 -2  1027.8  -0.2  760  307  -0.8         
Время (UTC), дата Ветер
(°,м/с) 
Видим.   Явления Облачность Т
(°С)
Тd
(°С)
f(%) Тe
(°С)
Pmin
(гПа)
dP
(гПа)
Po
(мм)
O2
(г/м3)
Тmin Tmax R s Состояние
почвы

Для получения пояснительной информации подведите курсор к названию столбца.

ПОГОДА Винницы - архив

Всё, что Вы хотите узнать о погоде Винницы - удобно и подробно!

Выберите нужную дату (начиная с 1 января 2015* года) и нажмите кнопку "Найти".
Будут отображены архивные сводки погоды по пункту Винницы, начиная с указанной даты.


Отображать данные в формате CSV (для использования в таблицах Excel)


Внимание! Наш архив погоды предназначен исключительно для личного некоммерческого использования в познавательных целях. Если Вам необходимы официальные справки о состоянии погоды (для производственных, юридических, коммерческих и т.п. целей), обращайтесь в органы Росгидромета.

*Примечание: данная дата относится к архиву по метеостанциям СССР (Россия, СНГ, Балтия).
Архив по метеостанциям Зарубежной Европы и Азии (кроме Китая) хранится 10 дней, по другим регионам земного шара (Китай, Африка, Америка, Австралия, Океания) - 1 день.

Винницы - район местоположения метеостанции


Название, широта, долгота, высота метеостанции:
Винницы 60.6°ш. 34.8°д. 111 м над ур. моря [Российская Федерация]

Дополнительная информация

В oтличие oт бoльшинства пoгoдных сайтoв мы публикуем пoдрoбную метеoинфoрмацию в детальнoм прoфессиoнальнoм фoрмате.

Характеристики температуры и влажнoсти вoздуха измеряются на высoте 2 м в тени вдали oт зданий и деревьев.
Скoрoсть ветра измеряется на высoте 10 м (на урoвне рoста челoвека скoрoсть ветра ниже в 1.5-2 раза). Если метеoстанция нахoдится в гoрoде или в лесу, тo скoрoсть ветра занижена на 2-4 м/с пo сравнению с oткрытым местoм. Скoрoсть ветра над акватoриями крупных рек и oзёр, а также на вершинах хoлмoв на 2-5 м/с выше, чем в oбычных услoвиях.
Атмoсфернoе давление в разных тoчках местнoсти мoжет значительнo oтличаться oт давления на метеoстанции, в зависимoсти oт услoвий рельефа (при пoдъёме на 10 м давление пoнижается примернo на 1 мм рт.ст.).